K7OLI-13 Weather Reports


Display with metric or nautical units.
time (UTC)temp
F
wind
direction
speed
MPH
gust
MPH
rain 1hr
in
rain 24hr
in
rain mn
in
humidity
%
barometer
mb
20260505201029 62 162 3.0 5.0 0.00 0.00 0.00 73 1013.1
20260505200034 63 240 4.0 6.0 0.00 0.00 0.00 72 1013.1
20260505195023 64 256 3.0 5.0 0.00 0.00 0.00 72 1013.1
20260505194031 63 205 3.0 4.0 0.00 0.00 0.00 73 1013.9
20260505193021 63 223 1.0 3.0 0.00 0.00 0.00 73 1014.1
20260505192051 63 279 3.0 4.0 0.00 0.00 0.00 73 1014.1
20260505191030 63 317 1.0 2.0 0.00 0.00 0.00 73 1014.1
20260505190019 64 203 2.0 4.0 0.00 0.00 0.00 70 1014.1
20260505185034 63 235 2.0 4.0 0.00 0.00 0.00 72 1013.1
20260505184024 62 38 4.0 5.0 0.00 0.00 0.00 74 1013.1
20260505183032 61 44 3.0 4.0 0.00 0.00 0.00 74 1013.1
20260505182021 62 274 2.0 4.0 0.00 0.00 0.00 73 1013.1
20260505181051 62 197 1.0 3.0 0.00 0.00 0.00 75 1013.9
20260505180021 61 283 2.0 3.0 0.00 0.00 0.00 74 1014.1
20260505175027 62 249 3.0 4.0 0.00 0.00 0.00 74 1013.1
20260505174035 61 177 2.0 3.0 0.00 0.00 0.00 75 1013.1
20260505173024 61 156 2.0 3.0 0.00 0.00 0.00 75 1013.1
20260505172032 60 106 2.0 4.0 0.00 0.00 0.00 77 1013.1
20260505171023 60 203 3.0 5.0 0.00 0.00 0.00 77 1013.1
20260505170022 59 219 2.0 3.0 0.00 0.00 0.00 78 1013.1
20260505165019 59 182 2.0 3.0 0.00 0.00 0.00 80 1013.1
20260505164026 59 247 1.0 5.0 0.00 0.00 0.00 80 1013.1
20260505163035 58 222 3.0 4.0 0.00 0.00 0.00 81 1013.1
20260505162047 58 223 3.0 4.0 0.00 0.00 0.00 81 1013.1
20260505161113 57 180 1.0 2.0 0.00 0.00 0.00 83 1013.1
20260505153027 56 231 4.0 4.0 0.00 0.00 0.00 87 1013.1
20260505152035 55 186 2.0 3.0 0.00 0.00 0.00 87 1013.1
20260505151024 55 164 2.0 3.0 0.00 0.00 0.00 88 1013.1
20260505140107 54 148 2.0 4.0 0.00 0.00 0.00 90 1012.2
20260505125024 54 165 4.0 5.0 0.00 0.00 0.00 90 1012.2
20260505124032 54 183 3.0 5.0 0.00 0.00 0.00 90 1011.2
20260505123023 54 173 4.0 6.0 0.00 0.00 0.00 90 1011.2
20260505122049 54 175 6.0 8.0 0.00 0.00 0.00 90 1012.2
20260505121037 54 181 5.0 6.0 0.00 0.00 0.00 90 1011.4
20260505120026 54 177 5.0 8.0 0.00 0.00 0.00 90 1011.2
20260505115035 54 194 3.0 5.0 0.00 0.00 0.00 89 1011.2
20260505114045 54 178 5.0 7.0 0.00 0.00 0.00 89 1011.2
20260505113033 54 185 5.0 7.0 0.00 0.00 0.00 89 1011.2
20260505112022 54 194 4.0 6.0 0.00 0.00 0.00 89 1011.2
20260505111030 54 177 3.0 4.0 0.00 0.00 0.00 89 1011.2
20260505102033 53 182 3.0 4.0 0.00 0.00 0.00 90 1011.2
20260505101021 53 181 3.0 4.0 0.00 0.00 0.00 90 1011.2
20260505100030 53 191 3.0 4.0 0.00 0.00 0.00 90 1011.2
20260505095019 53 175 4.0 5.0 0.00 0.00 0.00 89 1011.2
20260505094027 54 199 4.0 5.0 0.00 0.00 0.00 89 1011.2
20260505093034 54 201 4.0 7.0 0.00 0.00 0.00 89 1011.2
20260505092024 54 187 5.0 8.0 0.00 0.00 0.00 89 1011.2
20260505091032 54 178 4.0 7.0 0.00 0.00 0.00 89 1011.2
20260505090041 54 174 4.0 6.0 0.00 0.00 0.00 90 1011.2
20260505085019 53 162 3.0 4.0 0.00 0.00 0.00 90 1010.2
20260505084057 53 167 3.0 3.0 0.00 0.00 0.00 91 1010.2
20260505083027 53 163 2.0 3.0 0.00 0.00 0.00 91 1010.2
20260505082055 53 166 3.0 3.0 0.00 0.00 0.00 91 1010.2
20260505081024 53 180 2.0 3.0 0.00 0.00 0.00 91 1010.2
20260505080032 53 183 3.0 6.0 0.00 0.00 0.00 90 1010.2
20260505075021 53 168 4.0 6.0 0.00 0.00 0.00 90 1010.1
20260505074049 53 174 5.0 6.0 0.00 0.00 0.00 90 1010.1
20260505073019 53 165 4.0 6.0 0.00 0.00 0.00 90 1010.1
20260505072027 53 171 4.0 9.0 0.00 0.00 0.00 90 1010.1
20260505071034 53 155 4.0 5.0 0.00 0.00 0.00 90 1010.1
20260505070024 53 168 4.0 6.0 0.00 0.00 0.00 89 1010.1
20260505065022 54 172 5.0 9.0 0.00 0.00 0.00 89 1010.1
20260505064042 54 177 5.0 7.0 0.00 0.00 0.00 88 1010.1
20260505063030 54 173 4.0 6.0 0.00 0.00 0.00 88 1010.1
20260505062019 54 167 5.0 8.0 0.00 0.00 0.00 87 1010.1
20260505061046 55 185 5.0 6.0 0.00 0.00 0.00 87 1010.1
20260505060135 55 170 5.0 8.0 0.00 0.00 0.00 87 1010.1
20260505055025 55 170 4.0 7.0 0.00 0.00 0.00 86 1010.1
20260505054032 56 163 5.0 8.0 0.00 0.00 0.00 85 1010.1
20260505053021 56 177 5.0 9.0 0.00 0.00 0.00 85 1010.1
20260505052029 56 206 3.0 4.0 0.00 0.00 0.00 85 1010.1
20260505051019 56 223 4.0 6.0 0.00 0.00 0.00 84 1009.3
20260505041030 58 205 9.0 12.0 0.00 0.00 0.00 81 1009.1
20260505040057 58 186 10.0 12.0 0.00 0.00 0.00 81 1009.1
20260505035026 59 199 9.0 11.0 0.00 0.00 0.00 79 1009.1
20260505034053 59 216 8.0 16.0 0.00 0.00 0.00 78 1008.3
20260505033023 59 203 10.0 13.0 0.00 0.00 0.00 77
20260505032031 60 202 9.0 13.0 0.00 0.00 0.00 76
20260505031020 61 205 10.0 16.0 0.00 0.00 0.00 75
20260505030036 62 215 12.0 16.0 0.00 0.00 0.00 74
20260505025026 64 222 13.0 18.0 0.00 0.00 0.00 72
20260505024024 65 205 9.0 16.0 0.00 0.00 0.00 70
20260505023032 66 206 9.0 11.0 0.00 0.00 0.00 69
20260505022042 67 221 10.0 12.0 0.00 0.00 0.00 68
20260505021030 68 231 10.0 12.0 0.00 0.00 0.00 68
20260505020019 68 184 8.0 10.0 0.00 0.00 0.00 66
20260505015107 70 238 9.0 10.0 0.00 0.00 0.00 65
20260505014034 70 223 9.0 14.0 0.00 0.00 0.00 64
20260505013023 71 225 10.0 13.0 0.00 0.00 0.00 63
20260505012031 72 226 9.0 12.0 0.00 0.00 0.00 62
20260505011020 74 210 6.0 9.0 0.00 0.00 0.00 60
20260505010048 74 194 7.0 10.0 0.00 0.00 0.00 60
20260505005028 75 230 7.0 10.0 0.00 0.00 0.00 59
20260505004025 75 191 7.0 9.0 0.00 0.00 0.00 59
20260505003033 75 225 6.0 11.0 0.00 0.00 0.00 58
20260505002022 75 180 4.0 9.0 0.00 0.00 0.00 59
20260505001030 75 192 6.0 8.0 0.00 0.00 0.00 59
20260505000019 75 218 6.0 10.0 0.00 0.00 0.00 58
20260504235029 75 206 7.0 9.0 0.00 0.00 0.00 58
20260504234200 74 169 5.0 8.0 0.00 0.00 0.00 59
20260504233045 74 196 5.0 7.0 0.00 0.00 0.00 58
20260504232032 75 176 5.0 7.0 0.00 0.00 0.00 58
20260504231021 74 174 3.0 5.0 0.00 0.00 0.00 60
20260504230030 73 152 6.0 8.0 0.00 0.00 0.00 62
20260504225030 72 147 7.0 10.0 0.00 0.00 0.00 61
20260504224020 72 91 7.0 9.0 0.00 0.00 0.00 61
20260504223034 73 131 6.0 9.0 0.00 0.00 0.00 60
20260504222024 73 165 7.0 11.0 0.00 0.00 0.00 60
20260504221052 73 99 5.0 9.0 0.00 0.00 0.00 60
20260504220021 72 121 6.0 10.0 0.00 0.00 0.00 60
20260504215051 71 140 7.0 9.0 0.00 0.00 0.00 61
20260504214021 71 162 6.0 8.0 0.00 0.00 0.00 61
20260504213026 71 162 6.0 9.0 0.00 0.00 0.00 63
20260504212034 70 103 7.0 11.0 0.00 0.00 0.00 63
20260504211023 70 147 5.0 8.0 0.00 0.00 0.00 63
20260504210050 70 117 6.0 9.0 0.00 0.00 0.00 63
20260504205020 69 115 6.0 10.0 0.00 0.00 0.00 63
20260504204022 69 152 6.0 9.0 0.00 0.00 0.00 65
20260504203055 68 170 5.0 8.0 0.00 0.00 0.00 65
20260504202043 68 136 5.0 9.0 0.00 0.00 0.00 66